OKEAN-0
1 25860U 99039A 12186.97553695 .00000282 00000-0 50114-4 0 06802
2 25860 097.9371 149.2552 0001022 103.1120 257.0202 14.74230415697191
NOAA-16
1 26536U 00055A 12186.60141215 .00000314 00000-0 19364-3 0 08083
2 26536 099.0929 228.9927 0011044 039.0476 321.1501 14.12755867607495
NOAA-17
1 27453U 02032A 12186.79405959 .00000133 00000-0 74889-4 0 07607
2 27453 098.3351 212.9415 0012831 104.4114 255.8465 14.24453318521262
NOAA-18
1 28654U 05018A 12186.78509328 .00000411 00000-0 25077-3 0 02408
2 28654 099.0463 145.0198 0015212 104.3976 255.8877 14.11670785367049
NOAA-19
1 33591U 09005A 12186.86776782 .00000015 00000-0 32710-4 0 04318
2 33591 098.8643 126.4375 0013924 335.4901 024.5573 14.11356274175501
HUBBLE
1 20580U 90037B 12185.92876857 .00001316 00000-0 84095-4 0 00298
2 20580 028.4714 033.9796 0003503 231.8311 128.2137 15.02589516017251
ISS
1 25544U 98067A 12186.88741898 .00009202 00000-0 13684-3 0 08673
2 25544 051.6402 033.9136 0007946 120.0314 075.7168 15.55917966780768
CO-58
1 28895U 05043F 12186.61994314 .00000500 00000-0 11157-3 0 02175
2 28895 097.9109 052.1247 0019188 096.8842 263.4570 14.60661880356207
FALCON
1 30776U 07006E 12186.34128358 .00002306 00000-0 15092-3 0 03869
2 30776 035.4303 172.0575 0001192 179.7711 180.3008 15.07659319292847
MAST
1 31126U 07012K 12186.97546447 .00000575 00000-0 13809-3 0 05006
2 31126 097.8735 197.0351 0094888 055.5812 305.4311 14.54184720276854
CAPE1
1 31130U 07012P 12186.54427652 .00000723 00000-0 17383-3 0 05084
2 31130 097.8823 193.0012 0102684 070.0254 291.1964 14.52969735276291
COMPASS
1 32787U 08021E 12186.66699409 .00001704 00000-0 21035-3 0 03467
2 32787 097.7987 247.6151 0015286 008.2676 351.8821 14.84072418226404
AAUSAT2
1 32788U 08021F 12186.70020925 .00001611 00000-0 19760-3 0 03395
2 32788 097.8025 248.0393 0015069 009.5843 350.5650 14.84399808226435
DO-64
1 32789U 08021G 12186.72986800 .00002755 00000-0 32140-3 0 03545
2 32789 097.8126 250.1567 0014442 005.2868 354.8505 14.85933700226486
CO-66
1 32791U 08021J 12186.66354976 .00001225 00000-0 15519-3 0 03377
2 32791 097.8003 247.3399 0015943 007.6553 352.4910 14.83475926226335
RS-30
1 32953U 08025A 12186.75576287 .00000010 00000-0 00000-0 0 09296
2 32953 082.5036 284.2138 0017467 269.0731 090.8348 12.43025234186743
TACSAT-3
1 35001U 09028A 12121.72616188 .15204951 73582-5 42606-3 0 00016
2 35001 040.4259 351.8840 0007146 275.2650 085.0693 16.45157000166990
PHARMSAT
1 35002U 09028B 12186.73174606 .00169294 16769-4 53745-3 0 09633
2 35002 040.4559 314.4810 0011347 010.8413 349.2653 15.90324729177114
METEOR-M
1 35865U 09049A 12186.88244664 -.00000034 00000-0 42046-5 0 05590
2 35865 098.6534 240.8755 0002884 020.0691 340.0599 14.21864846145111
RS-38
1 35869U 09049E 12186.83061684 -.00000012 00000-0 14355-4 0 05663
2 35869 098.6491 240.8177 0004877 011.7583 348.3707 14.22076416145128
JUGNU
1 37839U 11058B 12186.55449561 .00000619 00000-0 19019-3 0 01814
2 37839 019.9608 253.0128 0020313 053.9810 306.2457 14.12064271037703
SRMSAT
1 37841U 11058D 12186.49110119 .00000264 00000-0 00000-0 0 01806
2 37841 019.9706 258.6152 0012206 019.4821 340.6076 14.10147455037640
RAX-2
1 37853U 11061D 12186.96482553 .00002187 00000-0 18204-3 0 02231
2 37853 101.7117 235.2457 0246577 300.2428 057.4569 14.80144073037035
AUBIESAT
1 37854U 11061E 12186.84733159 .00002486 00000-0 20275-3 0 02222
2 37854 101.7138 235.3477 0246843 299.8176 057.8689 14.80538594037000
HRBE
1 37855U 11061F 12186.86273953 .00002179 00000-0 17937-3 0 02305
2 37855 101.7148 235.3203 0247558 299.9505 057.7309 14.80386981037009
RS-39
1 38051U 11062C 12186.81575648 .00005698 00000-0 24120-3 0 04848
2 38051 051.6428 075.8203 0014712 098.8497 305.5395 15.24555370024665
E-STAR
1 38079U 12006C 12186.62178177 .00034855 00000-0 84498-3 0 03246
2 38079 069.4917 275.8020 0741209 225.9949 127.7757 14.15683396020051
GOLIAT
1 38085U 12006J 12186.34262177 .00033210 00000-0 80357-3 0 02991
2 38085 069.4970 276.7597 0746195 226.6051 127.0445 14.14666221020006
HORYU-2
1 38340U 12025D 12186.25201215 .00000935 00000-0 16421-3 0 00472
2 38340 098.1748 126.0181 0011820 278.5388 081.4492 14.70012326006986
